Weather History for Tin City, AK

Change the Weather History Date:

Tuesday, November 6, 2012

  Actual Average Record
Temperature  
Mean Temperature 26 °F -  
Max Temperature 29 °F 26 °F 39 °F (1998)
Min Temperature 24 °F 18 °F 1 °F (2005)
Degree Days  
Heating Degree Days 38    
Moisture  
Dew Point 24 °F    
Average Humidity 87    
Maximum Humidity 94    
Minimum Humidity 80    
Precipitation  
Precipitation 0.00 in - - ()
Sea Level Pressure  
Sea Level Pressure 30.26 in    
Wind  
Wind Speed 21 mph (WSW)    
Max Wind Speed 26 mph    
Max Gust Speed -    
Visibility 10 miles    
Events Snow    
Averages and records for this station are not official NWS values.
T = Trace of Precipitation, MM = Missing Value Source: NWS Daily Summary

Daily Weather History Graph

Daily Weather History Graph

Search for Another Location

Airport:

Trip Planner

Search our weather history database for the weather conditions in past years. The results will help you decide how hot, cold, wet, or windy it might be!

Date:

Astronomy

Nov. 06, 2012 Rise Set
Actual Time 10:24 AM AKST 5:25 PM AKST
Civil Twilight 9:24 AM AKST 6:25 PM AKST
Nautical Twilight 8:22 AM AKST 7:27 PM AKST
Astronomical Twilight 7:23 AM AKST 8:25 PM AKST
Moon No Moon Rise 3:53 PM AKST (11/6)
Length of Visible Light 9h 00m
Length of Day
7h 00m
Waning Gibbous, 51% of the Moon is Illuminated
Nov 6
Waning Gibbous
Nov 6
Last Quarter
Nov 13
New
Nov 20
First Quarter
Nov 28
Full

Hourly Weather History & Observations

Time (AKST) Temp. Windchill Dew Point Humidity Pressure Visibility Wind Dir Wind Speed Gust Speed Precip Events Conditions
7:09 AM 28.4 °F 13.5 °F 24.8 °F 86% 30.18 in 12.0 mi SW 26.5 mph - N/A   Overcast
7:55 AM 26.6 °F 12.0 °F 23.0 °F 86% 30.19 in 10.0 mi WSW 23.0 mph - N/A   Overcast
9:10 AM 26.6 °F 12.7 °F 23.0 °F 86% 30.20 in 12.0 mi WSW 20.7 mph - N/A   Overcast
9:55 AM 26.6 °F 12.4 °F 21.2 °F 80% 30.29 in 12.0 mi WSW 21.9 mph - N/A   Mostly Cloudy
9:59 AM 26.6 °F 12.4 °F 21.2 °F 80% 30.20 in 12.0 mi WSW 21.9 mph - N/A   Mostly Cloudy
10:55 AM 24.8 °F 10.3 °F 21.2 °F 86% 30.19 in 12.0 mi West 20.7 mph - N/A   Scattered Clouds
11:55 AM 26.6 °F 12.7 °F 21.2 °F 80% 30.24 in 12.0 mi West 20.7 mph - N/A   Scattered Clouds
12:55 PM 26.6 °F 13.8 °F 21.2 °F 80% 30.26 in 12.0 mi WSW 17.3 mph - N/A   Overcast
1:55 PM 26.8 °F 14.5 °F 22.5 °F 84% 30.26 in 10.0 mi West 16.1 mph - N/A   Overcast
2:55 PM 26.8 °F 13.7 °F 22.8 °F 85% 30.26 in 10.0 mi WSW 18.4 mph - N/A   Mostly Cloudy
3:55 PM 27.1 °F 13.4 °F 23.4 °F 86% 30.25 in 10.0 mi WSW 20.7 mph - N/A   Mostly Cloudy
4:55 PM 27.1 °F 12.7 °F 23.9 °F 88% 30.26 in 10.0 mi WSW 23.0 mph - N/A   Mostly Cloudy
5:55 PM 28.2 °F 14.8 °F 25.3 °F 89% 30.28 in 10.0 mi WSW 20.7 mph - N/A Snow Light Snow Showers
6:55 PM 28.6 °F 16.0 °F 25.5 °F 88% 30.30 in 10.0 mi WSW 18.4 mph - N/A Snow Light Snow
7:55 PM 28.9 °F 15.8 °F 26.2 °F 90% 30.30 in 10.0 mi WSW 20.7 mph - N/A   Mostly Cloudy
8:55 PM 29.3 °F 17.7 °F 27.1 °F 92% 30.32 in 9.0 mi WSW 16.1 mph - N/A Snow Light Snow Showers
9:55 PM 29.1 °F 19.4 °F 27.3 °F 93% 30.33 in 10.0 mi WSW 11.5 mph - N/A Snow Light Snow
10:55 PM 29.7 °F 21.3 °F 28.2 °F 94% 30.35 in 7.0 mi SW 9.2 mph - N/A Snow Light Snow
11:55 PM 29.7 °F 20.7 °F 28.2 °F 94% 30.35 in 10.0 mi WSW 10.4 mph - N/A Snow Light Snow